Waarnemingen

Advertentie
Mijn weer
Koksijde, België (6400): temperatuur & dauwpunt: 08.10.2019 20:00:00 - 14.10.2019 20:00:00 (CEST)Koksijde, België (6400): windsnelheid & windstoten: 08.10.2019 20:00:00 - 14.10.2019 20:00:00 (CEST)Koksijde, België (6400): windrichting: 08.10.2019 20:00:00 - 14.10.2019 20:00:00 (CEST)Koksijde, België (6400): luchtdruk: 08.10.2019 20:00:00 - 14.10.2019 20:00:00 (CEST)Koksijde, België (6400): zicht: 08.10.2019 20:00:00 - 14.10.2019 20:00:00 (CEST)
Datum & Tijd tt [°C] td [°C] ff [km/u] ff [kn] fx [km/u] fx [kn] dd ppp [hPa] vv [km]
14.10.2019 20:00:00 18,4 15,6 14 8 - - ZO 1004,1 15
14.10.2019 19:00:00 17,7 15,7 11 6 18 10 ZO 1003,7 12
14.10.2019 18:00:00 19,4 15,6 11 6 29 16 ZZO 1004,2 18
14.10.2019 17:00:00 20,3 15,4 18 10 - - ZZO 1004,5 17
14.10.2019 16:00:00 20,3 15,8 24 13 29 16 ZZO 1005,2 10
14.10.2019 15:00:00 18,9 15,0 18 10 25 14 ZO 1006,2 12
14.10.2019 14:00:00 18,2 15,1 14 8 - - OZO 1007,2 12
14.10.2019 13:00:00 16,0 14,5 18 10 29 16 O 1008,2 10
14.10.2019 12:00:00 14,4 13,1 18 10 40 21 O 1009,2 7
14.10.2019 11:00:00 13,3 12,4 18 10 - - ONO 1009,7 10
14.10.2019 10:00:00 12,8 12,3 11 6 14 8 NO 1010,6 7
14.10.2019 09:00:00 12,3 11,8 7 4 18 10 O 1011,0 4,0
14.10.2019 08:00:00 12,1 11,8 7 4 - - ONO 1011,7 7
14.10.2019 07:00:00 11,6 11,4 5 3 7 4 O 1012,2 6
14.10.2019 06:00:00 11,8 11,5 4 2 7 4 N 1012,7 9
14.10.2019 05:00:00 11,8 11,4 4 2 - - N 1012,2 8
14.10.2019 04:00:00 11,8 11,4 4 2 4 2 N 1012,7 14
14.10.2019 03:00:00 11,9 11,0 4 2 11 6 N 1012,7 11
14.10.2019 02:00:00 12,5 11,5 7 4 - - ZZW 1013,6 11
14.10.2019 01:00:00 12,3 11,6 7 4 11 6 ZZW 1012,7 11
14.10.2019 00:00:00 12,8 11,8 7 4 14 8 ZZW 1012,2 10
13.10.2019 23:00:00 13,6 11,9 11 6 - - WZW 1011,6 12
13.10.2019 22:00:00 13,6 12,3 11 6 22 12 ZW 1010,6 15
13.10.2019 21:00:00 14,8 13,3 18 10 22 12 ZW 1009,6 18
13.10.2019 20:00:00 15,1 13,6 14 8 - - WZW 1008,6 18
13.10.2019 19:00:00 15,3 13,5 18 10 32 18 WZW 1007,7 20
13.10.2019 18:00:00 15,8 14,0 22 12 47 25 WZW 1006,8 16
13.10.2019 17:00:00 19,1 15,5 22 12 - - ZZW 1005,3 16
13.10.2019 16:00:00 19,2 15,5 25 14 43 23 ZW 1005,3 13
13.10.2019 15:00:00 19,2 16,0 25 14 43 23 ZW 1004,7 9
13.10.2019 14:00:00 19,8 15,9 29 16 - - ZZW 1004,5 18
13.10.2019 13:00:00 19,7 16,1 26 14 43 23 Z 1004,2 10
13.10.2019 12:00:00 18,6 16,6 18 10 25 14 Z 1005,0 14
13.10.2019 11:00:00 16,7 15,6 14 8 - - Z 1005,3 7
13.10.2019 10:00:00 15,9 15,0 22 12 29 16 Z 1005,5 4,6
13.10.2019 09:00:00 15,1 14,2 11 6 22 12 Z 1005,7 3,6
13.10.2019 08:00:00 14,6 13,6 14 8 - - ZZO 1005,7 4,1
13.10.2019 07:00:00 14,1 13,2 14 8 22 12 ZZO 1006,2 5
13.10.2019 06:00:00 13,8 12,9 11 6 18 10 Z 1006,7 6
13.10.2019 05:00:00 14,1 13,0 11 6 - - Z 1006,7 7
13.10.2019 04:00:00 13,8 12,8 4 2 14 8 N 1007,2 8
13.10.2019 03:00:00 13,1 12,7 11 6 14 8 Z 1007,7 6
13.10.2019 02:00:00 12,6 12,4 7 4 - - Z 1007,8 4,5
13.10.2019 01:00:00 12,3 12,3 4 2 11 6 N 1008,2 0,5
13.10.2019 00:00:00 12,3 12,3 7 4 18 10 OZO 1008,7 0,1
12.10.2019 23:00:00 12,6 12,4 7 4 - - O 1009,2 1,1
12.10.2019 22:00:00 12,6 12,4 4 2 14 8 N 1009,6 1,9
12.10.2019 21:00:00 12,6 12,4 4 2 11 6 - 1009,3 1,5
12.10.2019 20:00:00 12,8 12,6 4 2 - - N 1009,5 4,4
12.10.2019 19:00:00 12,8 12,5 7 4 11 6 N 1009,1 5
12.10.2019 18:00:00 12,8 12,5 7 4 14 8 NNO 1009,3 5
12.10.2019 17:00:00 13,0 12,6 7 4 - - N 1009,6 14
12.10.2019 16:00:00 12,9 12,5 11 6 14 8 N 1010,0 20
12.10.2019 15:00:00 13,0 12,7 11 6 14 8 N 1010,2 5
12.10.2019 14:00:00 13,3 12,8 4 2 - - N 1010,2 11
12.10.2019 13:00:00 13,3 13,0 7 4 11 6 NNW 1010,2 3,8
12.10.2019 12:00:00 13,1 12,8 4 2 4 2 N 1009,6 1,9
12.10.2019 11:00:00 13,1 12,9 4 2 - - N 1009,5 1,9
12.10.2019 10:00:00 12,6 12,4 4 2 4 2 N 1009,2 1,2
12.10.2019 09:00:00 12,6 12,5 4 2 7 4 N 1008,6 3,3
12.10.2019 08:00:00 12,7 12,5 4 2 - - N 1008,3 1,6
12.10.2019 07:00:00 12,8 12,7 4 2 18 10 N 1008,0 2,7
12.10.2019 06:00:00 13,5 12,9 16 9 22 12 WZW 1007,8 4,9
12.10.2019 05:00:00 15,3 12,6 16 9 - - ZW 1007,5 10
12.10.2019 04:00:00 15,8 12,6 22 12 36 19 ZW 1007,6 18
12.10.2019 03:00:00 16,3 12,5 22 12 40 21 ZW 1007,7 18
12.10.2019 02:00:00 16,5 12,5 25 14 - - ZW 1007,8 18
12.10.2019 01:00:00 16,3 12,6 22 12 36 19 ZW 1007,8 20
12.10.2019 00:00:00 15,5 12,6 22 12 29 16 ZZW 1007,7 19
11.10.2019 23:00:00 16,3 12,8 22 12 - - ZZW 1008,2 19
11.10.2019 22:00:00 16,7 12,9 25 14 36 19 ZW 1008,6 20
11.10.2019 21:00:00 16,6 13,2 22 12 36 19 ZW 1008,3 20
11.10.2019 20:00:00 16,8 13,0 22 12 - - ZZW 1008,5 20
11.10.2019 19:00:00 16,3 13,2 25 14 47 25 ZW 1009,0 17
11.10.2019 18:00:00 16,7 13,0 32 18 54 29 ZW 1008,8 20
11.10.2019 17:00:00 17,0 12,6 29 16 - - ZW 1008,8 10
11.10.2019 16:00:00 16,6 12,6 29 16 47 25 ZW 1009,2 15
11.10.2019 15:00:00 16,3 12,7 29 16 47 25 ZZW 1009,6 15
11.10.2019 14:00:00 15,3 12,9 25 14 - - ZZW 1010,3 15
11.10.2019 13:00:00 14,8 12,8 25 14 43 23 ZZW 1011,0 15
11.10.2019 12:00:00 14,6 12,5 25 14 40 21 ZZW 1011,2 14
11.10.2019 11:00:00 14,6 12,1 25 14 - - ZZW 1011,3 15
11.10.2019 10:00:00 14,3 11,9 25 14 40 21 ZZW 1011,6 15
11.10.2019 09:00:00 14,1 11,9 25 14 40 21 ZZW 1011,5 12
11.10.2019 08:00:00 13,6 11,7 22 12 - - ZZW 1011,7 15
11.10.2019 07:00:00 13,5 11,4 28 15 36 19 ZZW 1011,8 10
11.10.2019 06:00:00 13,6 11,2 18 10 32 18 ZZW 1012,2 15
11.10.2019 05:00:00 13,8 11,0 22 12 - - ZZW 1012,7 15
11.10.2019 04:00:00 14,0 10,7 26 14 36 19 ZZW 1012,8 10
11.10.2019 03:00:00 13,8 10,3 22 12 32 18 ZZW 1013,2 13
11.10.2019 02:00:00 13,4 9,6 22 12 - - ZZW 1013,1 17
11.10.2019 01:00:00 13,1 9,3 25 14 36 19 ZZW 1013,3 16
11.10.2019 00:00:00 13,3 9,7 22 12 36 19 ZZW 1013,8 14
10.10.2019 23:00:00 13,7 10,1 22 12 - - ZZW 1014,2 13
10.10.2019 22:00:00 12,9 10,5 18 10 25 14 ZW 1014,8 9
10.10.2019 21:00:00 12,6 9,9 14 8 22 12 ZZW 1014,8 11
10.10.2019 20:00:00 12,8 10,1 14 8 - - ZW 1015,0 10
10.10.2019 19:00:00 14,7 10,0 18 10 36 19 ZW 1014,7 13
10.10.2019 18:00:00 15,1 9,6 22 12 36 19 ZW 1014,6 16
10.10.2019 17:00:00 15,6 9,7 25 14 - - WZW 1014,6 11
10.10.2019 16:00:00 16,6 8,8 25 14 43 23 WZW 1014,7 20
10.10.2019 15:00:00 15,9 8,8 22 12 43 23 W 1014,7 20
10.10.2019 14:00:00 15,7 8,4 32 18 - - W 1014,3 20
10.10.2019 13:00:00 15,2 8,7 32 18 47 25 W 1014,5 20
10.10.2019 12:00:00 14,6 8,8 29 16 47 25 W 1013,8 20
10.10.2019 11:00:00 14,1 8,2 25 14 - - W 1013,3 20
10.10.2019 10:00:00 12,3 8,9 22 12 29 16 WZW 1012,8 15
10.10.2019 09:00:00 9,5 8,1 13 7 18 10 ZW 1012,1 10
10.10.2019 08:00:00 8,9 7,7 14 8 - - ZW 1011,1 15
10.10.2019 07:00:00 8,7 7,6 14 8 22 12 ZW 1010,2 15
10.10.2019 06:00:00 9,5 8,0 14 8 25 14 ZW 1009,8 18
10.10.2019 05:00:00 9,1 7,6 11 6 - - ZW 1009,0 17
10.10.2019 04:00:00 9,2 7,8 11 6 36 19 ZW 1008,2 19
10.10.2019 03:00:00 10,0 8,3 18 10 32 18 W 1007,7 18
10.10.2019 02:00:00 10,6 9,3 14 8 - - WZW 1007,3 20
10.10.2019 01:00:00 10,6 9,2 22 12 29 16 ZZW 1007,1 20
10.10.2019 00:00:00 10,2 9,2 14 8 29 16 ZZW 1007,0 13
09.10.2019 23:00:00 10,6 9,0 21 11 - - ZZW 1007,2 6
09.10.2019 22:00:00 11,1 8,9 18 10 29 16 ZZW 1007,1 14
09.10.2019 21:00:00 11,8 8,9 18 10 25 14 ZW 1007,2 16
09.10.2019 20:00:00 11,9 8,2 14 8 - - ZW 1007,0 20
09.10.2019 19:00:00 12,6 9,1 18 10 32 18 WZW 1006,6 20
09.10.2019 18:00:00 14,1 8,4 22 12 43 23 WZW 1006,2 20
09.10.2019 17:00:00 14,3 10,7 22 12 - - ZW 1005,6 19
09.10.2019 16:00:00 12,6 10,1 25 14 43 23 ZW 1005,5 15
09.10.2019 15:00:00 12,9 10,1 25 14 40 21 ZW 1005,3 18
09.10.2019 14:00:00 12,6 10,1 22 12 - - ZZW 1005,2 18
09.10.2019 13:00:00 12,5 10,3 25 14 32 18 ZZW 1005,5 18
09.10.2019 12:00:00 10,6 9,7 22 12 32 18 ZZW 1006,1 12
09.10.2019 11:00:00 10,6 9,4 18 10 - - ZZW 1006,3 12
09.10.2019 10:00:00 10,5 9,7 14 8 22 12 ZZW 1006,7 10
09.10.2019 09:00:00 10,3 9,5 15 8 36 19 ZZW 1006,7 10
09.10.2019 08:00:00 11,3 9,9 18 10 - - ZZW 1006,7 15
09.10.2019 07:00:00 11,2 9,9 18 10 25 14 ZZW 1006,8 10
09.10.2019 06:00:00 11,1 9,5 14 8 22 12 ZZW 1007,5 13
09.10.2019 05:00:00 11,1 9,5 11 6 - - ZW 1007,7 12
09.10.2019 04:00:00 10,6 8,9 11 6 14 8 ZZW 1008,1 12
09.10.2019 03:00:00 10,4 8,8 11 6 22 12 ZW 1008,3 11
09.10.2019 02:00:00 10,9 9,1 14 8 - - ZW 1008,6 13
09.10.2019 01:00:00 12,1 10,1 14 8 29 16 ZW 1008,2 12
09.10.2019 00:00:00 12,5 10,5 11 6 22 12 ZW 1008,0 9
08.10.2019 23:00:00 13,1 10,8 14 8 - - WZW 1007,8 11
08.10.2019 22:00:00 13,6 10,4 18 10 32 18 WZW 1007,7 12
08.10.2019 21:00:00 13,4 10,4 22 12 32 18 ZW 1007,0 11
08.10.2019 20:00:00 13,8 10,2 22 12 - - WZW 1007,1 12

tt = temperatuur
td = dauwpunt
ff = windsnelheid
fx = windstoten
dd = windrichting
ppp = luchtdruk
vv = zicht

Weerstations in de omgeving